RH
9 11 12 10 8 8 10 14 17 21 23 24 22 24 33 65 95 100 100 100 100 100 98 90 94 100 100 95 90 76 63 93 86 91 98 100 93 75 55 69 72 56 82 74 67
8 9 9 9 9 9 11 12 13 16 20 22 24 27 27 44 76 98 100 100 100 100 100 100 99 97 100 99 85 99 68 70 100 92 82 83 72 71 68 74 67 62 73 50 28
9 9 9 9 9 9 10 11 12 14 17 21 24 31 34 37 56 60 72 88 100 100 100 100 98 93 87 88 93 81 78 78 74 80 79 73 65 67 59 60 73 63 40 12 9
9 10 8 9 10 10 10 13 14 15 16 22 24 26 33 38 38 42 56 82 89 99 100 97 88 79 92 92 83 75 68 58 48 55 62 56 51 48 33 33 26 13 10 11 12
10 10 10 11 11 11 12 15 16 20 21 27 36 36 32 35 37 40 42 41 54 70 82 82 82 80 69 72 63 54 53 47 47 43 32 34 31 26 20 11 9 11 14 16 21
11 10 10 11 12 15 16 18 24 30 38 40 57 34 31 35 30 29 29 26 27 32 34 43 50 58 64 55 55 48 36 37 34 30 23 20 12 10 10 11 13 17 20 25 25
14 12 12 14 17 20 29 55 81 48 68 51 48 60 53 41 44 42 33 25 21 19 21 24 26 26 30 30 19 20 22 19 15 12 10 10 10 11 13 16 19 21 21 23 29
17 19 17 19 26 34 47 61 78 97 57 71 60 60 73 77 68 52 41 34 27 22 20 19 17 15 14 14 13 11 10 10 10 10 11 12 14 17 20 21 21 22 24 27 24
25 26 28 41 51 62 70 83 74 66 68 56 79 100 84 65 48 35 24 20 16 15 14 13 12 12 11 11 10 10 11 12 12 14 13 15 21 24 26 26 24 25 33 39 56
34 40 43 48 52 60 57 62 56 58 85 100 99 77 52 29 24 19 16 15 15 14 14 14 14 13 12 12 12 12 12 15 16 18 18 24 25 27 29 27 25 24 22 22 24
44 47 49 52 53 54 59 65 92 100 100 94 84 41 28 23 21 19 18 18 19 18 15 15 15 13 13 13 14 14 15 15 18 19 20 27 28 29 28 27 26 26 22 20 23
53 50 50 58 77 91 99 100 100 96 86 55 32 25 24 23 21 21 21 22 21 20 18 17 16 15 15 16 17 17 17 18 17 17 18 21 22 21 20 17 18 20 20 25 27
90 92 99 100 100 100 100 98 82 65 41 31 29 29 24 23 23 23 21 22 24 30 24 20 19 17 16 16 17 18 18 18 20 21 21 25 27 26 22 21 26 29 34 33 34
100 100 100 100 100 95 95 76 49 38 33 34 38 33 27 24 24 22 22 23 24 25 38 28 25 21 20 19 19 18 18 18 22 22 22 29 32 32 29 32 31 37 40 41 39
100 100 100 96 99 98 69 49 41 37 39 39 34 25 23 25 26 27 28 27 26 29 33 42 32 25 24 24 21 20 19 19 19 22 28 30 29 30 31 32 31 28 26 28 30
100 100 99 98 82 63 71 54 40 39 43 41 27 26 28 31 34 34 29 28 27 28 31 36 48 45 29 26 21 18 20 22 25 26 27 25 25 26 23 22 23 25 23 23 23
94 79 76 78 82 83 60 38 37 39 43 39 33 37 37 38 38 40 32 32 27 31 36 32 30 34 52 42 26 18 18 20 23 26 23 21 22 21 20 21 22 23 26 28 40
90 73 84 91 89 54 38 37 40 40 44 47 47 45 43 41 38 35 39 36 38 32 29 26 28 32 33 36 25 21 18 16 18 22 22 21 21 22 21 20 24 30 36 50 58
88 74 74 68 44 40 41 41 43 35 47 46 49 50 48 49 48 48 51 40 37 32 23 22 22 24 28 31 33 21 17 17 17 19 17 18 18 17 19 26 38 48 54 61 54
90 70 54 53 46 48 45 44 42 38 44 43 48 55 55 50 54 52 42 35 30 28 22 19 19 20 22 24 25 22 17 15 15 16 17 19 20 22 31 45 58 59 62 53 51
79 71 73 67 56 48 47 46 38 38 40 48 47 53 61 61 60 46 33 28 28 30 27 26 21 19 19 19 19 18 17 16 16 17 18 22 27 40 54 55 50 46 52 58 68
91 71 61 65 56 48 47 41 36 37 48 53 61 68 67 68 57 51 47 38 34 29 25 30 31 33 32 28 26 22 18 18 22 32 42 44 62 55 50 49 54 64 69 82 79
78 78 68 72 64 56 51 46 44 45 53 65 68 68 67 65 66 64 61 53 47 46 40 32 29 30 32 35 36 34 33 36 39 56 56 58 51 57 54 67 75 73 64 50 47
88 69 88 82 73 65 57 54 54 52 51 54 57 61 59 60 59 54 55 62 62 57 54 50 43 47 40 36 42 39 35 36 40 43 43 69 64 65 72 73 64 52 50 56 56
95 79 83 86 71 62 58 56 59 58 59 56 55 56 54 51 52 53 52 58 68 66 63 58 56 57 43 40 49 63 50 44 43 47 48 50 56 49 61 62 59 63 62 60 65
100 91 85 88 74 62 58 55 59 60 56 49 47 49 52 51 47 46 46 45 44 47 58 58 61 61 66 50 52 58 46 46 53 56 54 56 58 69 73 63 63 58 59 64 74
100 97 93 94 81 70 61 58 58 58 56 54 57 57 62 56 53 48 40 38 41 42 41 45 51 52 61 61 54 67 58 50 51 58 55 52 76 74 61 65 62 61 64 75 78
Wind_Speed
26 29 31 32 33 35 38 40 43 48 54 60 59 66 78 93 92 91 98 90 94 96 96 98 102 98 97 97 96 97 95 97 97 103 110 104 106 111 113 112 110 118 103 98 100
24 26 29 30 32 35 36 38 42 46 48 49 52 54 61 72 80 79 93 99 96 90 97 97 104 101 97 94 100 96 98 107 101 97 98 103 108 104 101 99 96 100 92 83 80
22 26 29 32 32 34 35 39 43 43 42 42 46 48 53 60 69 83 94 94 94 91 92 96 102 102 98 77 92 98 103 101 101 98 100 101 91 87 88 90 91 88 78 65 54
24 28 28 31 33 33 35 38 40 40 38 37 39 44 45 49 57 66 66 67 77 85 88 99 107 104 106 101 96 96 102 98 101 97 87 85 87 85 80 74 72 62 50 33 29
25 28 30 32 32 33 36 35 34 35 34 33 33 40 43 42 43 49 50 61 64 77 67 84 96 91 92 84 84 80 85 95 79 75 73 79 81 73 62 52 48 33 20 15 12
25 28 30 31 32 34 34 35 33 31 31 30 31 27 29 32 35 36 42 50 57 53 58 60 66 69 76 78 79 76 72 79 73 75 71 58 48 41 41 30 18 13 14 12 11
29 32 31 32 33 33 32 32 29 29 27 23 18 15 18 15 16 18 24 33 48 59 56 47 55 55 66 77 66 69 74 58 45 41 37 32 27 22 17 13 12 10 10 10 11
32 32 33 32 31 31 29 29 24 22 19 13 11 8 7 5 7 9 11 15 18 22 26 31 44 40 32 41 43 45 37 32 29 24 20 19 14 12 12 12 12 11 15 16 17
31 32 29 29 31 31 29 26 22 17 14 13 11 9 7 9 11 12 14 18 18 19 20 21 23 26 26 25 25 24 19 16 16 12 12 10 8 10 12 16 17 16 16 22 24
32 30 29 30 27 25 22 20 18 18 16 14 10 9 11 12 13 14 15 15 17 18 21 22 22 21 19 16 16 13 11 11 8 9 9 9 12 14 18 19 21 22 24 26 29
31 30 29 29 27 25 26 24 22 18 16 13 13 16 15 13 12 13 14 15 15 17 20 17 17 15 12 9 9 9 9 9 8 10 10 14 17 19 21 23 25 23 29 35 37
31 29 28 29 28 27 25 23 22 19 18 18 18 17 14 10 6 6 8 11 13 13 15 14 12 12 10 6 5 8 8 8 10 10 10 13 19 22 23 24 26 30 33 32 35
33 31 30 29 28 27 26 23 20 18 18 17 14 11 8 7 7 8 9 10 11 14 14 14 12 10 11 11 8 10 12 12 14 15 16 17 20 21 21 23 26 28 30 34 37
31 32 29 27 26 25 24 23 21 19 15 11 8 9 7 6 7 9 10 12 13 13 15 15 14 13 11 13 14 15 17 17 18 19 21 20 18 20 21 22 23 25 31 36 41
32 32 30 26 25 26 24 22 18 14 11 11 11 9 5 5 7 10 13 15 14 15 16 17 17 16 17 18 19 19 20 21 22 19 19 17 17 18 18 20 25 30 36 42 43
31 30 27 26 25 23 21 18 15 12 9 9 8 6 4 6 10 12 14 15 18 19 19 20 21 21 22 22 21 21 20 19 18 19 18 17 17 19 24 25 28 39 41 43 43
29 25 25 24 23 22 20 17 12 9 8 6 4 4 5 8 12 12 14 14 14 15 18 20 23 25 26 27 26 23 21 19 20 21 20 20 22 26 29 33 37 40 41 36 37
28 26 25 25 24 22 18 13 10 7 7 6 7 8 10 12 12 11 11 11 13 14 15 18 19 22 26 26 28 26 25 22 21 19 22 24 27 31 35 39 40 39 39 42 45
29 27 27 25 23 20 17 14 10 8 9 9 9 9 10 10 9 9 10 11 13 13 13 15 17 19 20 24 26 30 29 26 23 23 27 31 31 37 37 35 38 42 44 46 45
30 27 27 26 23 20 16 15 12 11 10 10 10 8 9 10 10 12 10 10 11 11 12 13 14 15 18 20 21 28 28 27 26 26 29 37 41 32 35 39 43 44 45 46 51
30 27 27 25 22 19 18 16 14 12 11 11 9 10 10 12 12 12 9 8 8 9 10 11 12 13 13 15 16 18 24 25 27 30 30 33 49 40 42 44 44 45 47 51 56
33 30 25 22 21 21 19 16 15 15 13 11 10 9 9 12 14 14 13 12 12 12 12 12 11 12 13 16 16 16 19 22 20 24 30 32 42 42 43 44 48 51 53 57 60
32 33 29 25 23 21 19 18 18 17 14 12 11 12 14 14 15 15 16 17 18 19 19 19 19 20 20 21 23 25 25 26 26 27 32 36 40 44 43 45 48 51 55 60 66
33 32 32 30 25 23 21 21 20 19 17 16 17 17 17 17 18 21 22 22 23 24 26 27 26 27 29 28 27 27 25 27 29 33 36 47 40 47 46 50 56 61 64 67 70
33 31 33 32 29 27 26 25 24 22 21 21 22 23 24 24 23 24 23 25 27 27 27 26 29 29 29 28 29 33 33 30 30 34 37 41 45 49 53 58 63 66 70 71 75
34 33 35 34 32 31 29 27 27 26 26 26 26 27 28 29 28 30 30 31 32 32 30 30 28 31 35 30 33 38 37 38 38 43 44 45 50 54 59 63 67 70 72 75 77
40 36 38 37 36 35 33 32 31 31 30 30 30 30 31 33 34 34 33 33 35 36 37 34 32 30 34 35 40 44 42 41 44 49 51 53 55 59 65 67 70 73 76 81 83
Wind_Direction
222 219 215 219 221 219 215 214 213 217 221 223 226 227 230 234 237 238 240 238 241 242 246 249 251 256 253 257 259 262 267 270 270 274 277 284 286 284 287 292 288 289 289 291 291
219 214 210 214 213 210 209 208 210 212 216 218 221 223 226 231 235 239 240 241 245 248 249 251 253 255 258 265 259 261 266 268 281 284 286 287 287 287 289 290 289 288 286 293 292
207 204 206 208 205 203 202 202 203 210 214 215 217 221 224 227 233 239 242 246 248 252 256 256 256 260 265 263 274 272 273 278 281 285 284 285 286 283 287 288 286 286 290 294 295
194 194 198 196 193 193 198 195 200 207 212 217 223 227 230 235 238 242 246 249 252 255 258 255 257 260 263 270 276 280 274 277 282 278 282 282 288 285 287 290 289 288 293 300 303
182 182 181 180 183 186 186 187 195 203 210 216 221 228 233 237 239 242 249 253 256 258 261 265 265 269 266 272 275 273 279 274 275 279 281 284 281 283 288 289 286 294 306 315 317
170 175 172 175 175 175 177 182 191 197 207 212 220 234 240 247 250 252 251 256 256 259 267 272 265 263 265 271 270 271 273 271 271 277 283 279 281 286 284 285 294 323 321 319 321
152 157 162 162 166 170 170 177 184 196 203 215 224 238 246 251 255 261 261 262 261 265 267 264 266 278 267 267 270 276 274 275 276 277 274 280 284 279 289 304 319 311 292 292 306
139 146 152 154 160 165 170 176 184 194 204 206 215 195 213 227 272 273 270 268 266 264 260 261 268 272 272 266 267 273 274 280 276 275 277 278 281 287 308 306 302 288 294 301 297
143 151 149 155 156 165 166 170 182 191 195 180 166 174 213 238 246 252 252 254 252 259 263 264 267 271 271 267 269 267 274 267 261 270 279 290 284 278 281 284 293 286 300 301 291
148 148 153 157 161 165 166 175 176 170 177 181 178 192 215 241 242 247 253 253 253 249 251 257 260 262 259 266 263 259 253 244 253 277 290 286 270 268 271 278 282 282 287 302 299
148 149 149 150 154 159 163 167 175 177 170 177 201 220 220 225 234 240 243 243 243 245 245 258 259 252 259 252 260 252 254 270 291 289 287 267 267 273 280 286 289 288 297 301 301
150 150 149 150 156 162 167 166 161 167 178 190 200 203 207 217 222 243 257 265 264 261 251 246 250 249 244 242 272 275 275 276 273 282 284 282 280 282 285 289 289 285 295 298 299
148 150 155 159 161 164 161 161 166 177 181 187 194 195 194 220 239 259 272 266 255 260 267 265 260 260 246 243 250 256 267 278 288 297 302 297 291 291 295 297 305 309 305 301 298
157 158 158 155 154 160 164 168 174 174 177 176 179 199 219 254 287 298 298 288 277 258 247 258 264 263 262 259 258 263 267 271 280 291 302 304 296 298 299 300 304 310 311 309 305
162 165 162 164 165 168 170 169 167 171 175 184 197 213 230 268 303 296 296 290 280 269 263 253 251 254 261 260 252 253 257 265 273 284 294 293 284 292 305 305 310 310 309 299 296
165 168 170 171 171 172 172 168 174 179 178 199 205 227 264 294 306 317 315 307 293 274 262 259 252 249 250 255 250 246 253 265 276 284 284 285 287 291 297 299 305 307 303 298 302
167 170 167 169 170 173 174 177 179 191 205 211 228 270 277 302 321 319 323 326 319 295 276 275 271 258 252 252 254 253 252 257 266 277 281 284 284 286 290 302 306 306 304 308 307
169 170 171 174 174 176 179 184 190 208 217 226 241 267 279 304 315 315 321 320 303 290 290 283 277 268 268 259 253 256 261 262 269 272 276 279 283 284 294 305 308 305 307 309 308
175 176 178 178 179 183 191 197 210 222 224 240 262 286 292 303 308 315 319 310 320 311 307 301 294 284 275 262 262 255 263 271 272 278 290 294 293 298 304 307 304 305 308 309 308
182 183 185 187 190 196 201 213 227 226 233 251 273 271 280 292 296 303 307 326 332 327 319 319 317 305 292 284 275 258 265 275 280 289 295 295 295 301 305 306 306 306 306 306 311
188 190 194 193 198 204 212 223 228 231 240 253 270 287 286 282 287 295 307 326 345 352 350 349 348 351 337 319 304 281 272 282 287 291 293 296 294 305 307 306 306 308 308 310 310
195 200 200 200 207 213 222 225 235 236 242 258 268 279 281 285 293 298 304 308 308 313 315 322 323 329 328 329 329 315 300 293 293 298 299 303 295 305 307 309 311 311 309 308 309
206 208 207 209 214 220 226 235 240 240 247 257 268 277 281 295 304 305 304 307 308 306 305 302 302 303 298 298 299 301 299 297 294 293 298 305 307 304 311 311 308 304 305 307 311
211 217 214 218 218 224 229 236 241 246 257 263 269 275 285 291 295 297 298 300 299 298 297 298 298 301 299 302 300 299 300 303 297 298 301 304 310 311 309 303 304 307 310 310 311
216 220 220 222 221 227 232 237 242 249 258 264 271 277 282 287 290 292 297 298 300 299 295 296 299 301 299 302 302 295 302 306 304 303 301 296 298 298 300 303 308 310 311 312 314
219 224 225 224 225 230 235 240 245 250 256 262 269 273 278 280 283 286 290 293 295 296 296 295 298 303 305 305 303 299 302 305 306 302 301 299 299 303 304 307 310 311 313 313 314
228 230 226 227 228 231 237 241 245 251 257 264 270 275 279 279 281 283 285 289 294 296 296 292 293 296 298 301 304 299 304 309 308 304 302 304 304 303 306 307 308 308 309 310 312